Location: Unspecified
(55.3500°N, 0.0000°E)
Time: 03:28:04
(UTC+00:00)

CZ-6A DEB - Visible Passes

Search period start: 04 April 2026 00:00
Search period end: 14 April 2026 00:00
Orbit: 672 x 794 km, 98.6° (Epoch: 27 March)

Date Brightness Start Highest point End Pass type
(mag) Time Alt. Az. Time Alt. Az. Time Alt. Az.
4 Apr ? 20:13:54 10° SW 20:17:43 20° W 20:21:33 10° NW visible
5 Apr ? 19:26:09 10° SSW 19:31:06 42° W 19:36:04 10° NNW visible
6 Apr ? 20:20:15 10° SW 20:23:49 18° W 20:27:23 10° NW visible
7 Apr ? 19:32:17 10° SSW 19:37:09 38° W 19:42:01 10° NNW visible
8 Apr ? 20:26:36 10° SW 20:29:53 17° W 20:33:09 10° NW visible
9 Apr ? 19:38:24 10° SSW 19:43:10 35° W 19:47:54 10° NNW visible
10 Apr ? 20:32:59 10° WSW 20:35:55 15° W 20:38:50 10° NW visible
11 Apr ? 19:44:30 10° SSW 19:49:08 32° W 19:53:45 10° NNW visible
12 Apr ? 20:39:24 10° WSW 20:41:55 13° W 20:44:25 10° NW visible
13 Apr ? 19:50:36 10° SSW 19:55:05 29° W 19:59:32 10° NNW visible
